Location: Unspecified
(48.8656°N, 0.0000°E)
Time: 11:06:55
(UTC+00:00)

Tiangong 2 - Pass Details

Date: 27 May 2019
Orbit: 376 x 389 km, 42.8° (Epoch: 17 June)

Event Time Altitude Azimuth Distance (km) Brightness Sun altitude
Rises 20:21:13 0° 259° (W) 2,241 5.6 -4.9°
Reaches altitude 10° 20:23:31 10° 245° (WSW) 1,386 4.2 -5.2°
Maximum altitude 20:26:05 23° 190° (S) 848 2.5 -5.5°
Drops below altitude 10° 20:28:38 10° 134° (SE) 1,381 3.2 -5.8°
Enters shadow 20:29:05 - 130° (SE) 1,539 3.4 -5.9°
